Date,TemperatureHighF,TemperatureAvgF,TemperatureLowF,DewpointHighF,DewpointAvgF,DewpointLowF,HumidityHigh,HumidityAvg,HumidityLow,PressureMaxIn,PressureMinIn,WindSpeedMaxMPH,WindSpeedAvgMPH,GustSpeedMaxMPH,PrecipitationSumIn
2014-1-1,36,31,26,30,26,23,90,83,61,0.00,40.00,0,-999,0,0.00
2014-1-2,46,42,37,33,32,31,86,71,56,0.00,40.00,0,-999,0,0.00
2014-1-3,25,25,25,22,22,22,89,89,89,0.00,40.00,0,-999,0,0.00
2014-1-4,20,19,18,18,16,15,90,88,86,0.00,40.00,0,-999,0,0.00
2014-1-5,28,26,24,17,16,15,69,66,62,0.00,40.00,0,-999,0,0.00
2014-1-6,37,29,21,22,19,16,80,68,55,0.00,40.00,0,-999,0,0.00
2014-1-13,35,34,32,33,32,31,96,92,89,0.00,40.00,0,-999,0,0.00
2014-1-14,34,32,30,32,30,28,95,94,93,0.00,40.00,0,-999,0,0.00
2014-1-15,45,38,27,31,29,25,91,70,56,0.00,40.00,0,-999,0,0.00
2014-1-16,50,37,29,31,28,26,89,72,47,0.00,40.00,0,-999,0,0.00
2014-1-18,34,32,28,22,20,19,69,63,58,0.00,40.00,0,-999,0,0.00
2014-1-23,44,36,29,28,27,26,88,70,52,0.00,40.00,0,-999,0,0.00
2014-1-26,45,39,33,23,20,18,65,49,33,0.00,40.00,0,-999,0,0.00
2014-1-29,35,35,35,32,32,31,90,88,86,0.00,40.00,0,-999,0,0.00
2014-1-31,30,28,27,26,25,24,90,88,84,0.00,40.00,0,-999,0,0.00
2014-2-1,31,26,16,24,21,12,90,82,69,0.00,40.00,0,-999,0,0.00
2014-2-2,23,19,13,20,16,9,87,86,84,0.00,40.00,0,-999,0,0.00
2014-2-3,23,22,18,20,18,15,88,85,78,0.00,40.00,0,-999,0,0.00
2014-2-4,14,13,12,7,6,5,81,76,68,0.00,40.00,0,-999,0,0.00
2014-2-5,2,0,-2,-4,-6,-9,79,75,70,0.00,40.00,0,-999,0,0.00
2014-2-7,25,13,1,12,5,-4,80,71,56,0.00,40.00,0,-999,0,0.00
2014-2-8,10,10,10,7,7,7,88,88,88,0.00,40.00,0,-999,0,0.00
2014-2-9,23,18,11,20,15,8,90,89,86,0.00,40.00,0,-999,0,0.00
2014-2-10,35,27,18,32,25,15,93,90,87,0.00,40.00,0,-999,0,0.00
2014-2-22,27,24,20,22,20,17,90,83,76,0.00,40.00,0,-999,0,0.00
2014-2-23,29,28,26,28,26,25,95,94,94,0.00,40.00,0,-999,0,0.00
2014-2-24,33,28,25,31,25,22,95,92,88,0.00,40.00,0,-999,0,0.00
2014-2-25,25,24,21,22,21,19,90,89,87,0.00,40.00,0,-999,0,0.00
2014-2-26,21,21,21,17,17,17,86,86,86,0.00,40.00,0,-999,0,0.00
2014-2-27,30,27,25,25,23,21,86,83,81,0.00,40.00,0,-999,0,0.00
2014-2-28,34,32,30,29,26,24,81,78,71,0.00,40.00,0,-999,0,0.00
2014-3-1,27,22,18,24,16,12,89,78,72,0.00,40.00,0,-999,0,0.00
2014-3-2,27,27,27,25,25,25,93,93,93,0.00,40.00,0,-999,0,0.00
2014-3-3,37,35,33,33,32,31,94,90,84,0.00,40.00,0,-999,0,0.00
2014-3-4,35,34,33,32,31,31,94,92,90,0.00,40.00,0,-999,0,0.00
2014-3-5,40,38,36,37,35,34,93,88,80,0.00,40.00,0,-999,0,0.00
2014-3-6,34,34,34,31,31,31,89,89,89,0.00,40.00,0,-999,0,0.00
2014-3-7,47,37,31,35,31,28,90,80,62,0.00,40.00,0,-999,0,0.00
2014-3-8,44,41,32,41,36,29,90,82,70,0.00,40.00,0,-999,0,0.00
2014-3-12,46,36,25,27,24,21,86,66,47,0.00,40.00,0,-999,0,0.00
2014-3-13,52,39,28,27,25,23,83,59,37,0.00,40.00,0,-999,0,0.00
2014-3-14,36,34,31,33,31,28,93,89,83,0.00,40.00,0,-999,0,0.00
2014-3-15,51,51,51,34,34,34,53,53,53,0.00,40.00,0,-999,0,0.00
2014-3-16,40,38,32,37,35,30,94,90,85,0.00,40.00,0,-999,0,0.00
2014-3-17,28,26,25,25,22,21,90,85,80,0.00,40.00,0,-999,0,0.00
2014-3-18,43,33,21,30,28,19,94,81,59,0.00,40.00,0,-999,0,0.00
2014-3-19,34,31,29,31,28,27,94,90,82,0.00,40.00,0,-999,0,0.00
2014-3-20,36,28,22,25,21,18,87,76,52,0.00,40.00,0,-999,0,0.00
2014-3-21,28,26,24,24,22,21,90,87,85,0.00,40.00,0,-999,0,0.00
2014-3-22,26,26,26,18,18,18,70,70,70,0.00,40.00,0,-999,0,0.00
2014-3-23,48,39,29,26,25,21,83,59,34,0.00,40.00,0,-999,0,0.00
2014-3-24,50,36,25,27,25,20,81,67,41,0.00,40.00,0,-999,0,0.00
2014-3-25,40,37,35,34,29,26,78,74,70,0.00,40.00,0,-999,0,0.00
2014-3-26,38,35,32,30,28,27,82,78,73,0.00,40.00,0,-999,0,0.00
2014-3-29,35,34,33,30,29,28,83,83,83,0.00,40.00,0,-999,0,0.00
2014-3-30,32,30,29,29,27,25,89,87,85,0.00,40.00,0,-999,0,0.00
2014-3-31,42,37,27,29,27,23,85,69,56,0.00,40.00,0,-999,0,0.00
2014-4-1,43,36,32,33,30,28,92,81,57,0.00,40.00,0,-999,0,0.00
2014-4-2,42,35,31,31,28,26,94,78,57,0.00,40.00,0,-999,0,0.00
2014-4-3,43,35,28,32,27,24,89,74,46,0.00,40.00,0,-999,0,0.00
2014-4-4,36,33,31,30,29,27,93,86,70,0.00,40.00,0,-999,0,0.00
2014-4-5,38,35,32,34,32,30,92,89,85,0.00,40.00,0,-999,0,0.00
2014-4-8,57,49,43,41,38,33,87,68,48,0.00,40.00,0,-999,0,0.00
2014-4-9,45,36,29,28,27,25,86,69,48,0.00,40.00,0,-999,0,0.00
2014-4-10,43,34,27,32,27,25,94,79,51,0.00,40.00,0,-999,0,0.00
2014-4-11,49,36,29,33,29,26,91,79,48,0.00,40.00,0,-999,0,0.00
2014-4-12,43,34,31,29,28,26,91,78,50,0.00,40.00,0,-999,0,0.00
2014-4-13,54,41,28,26,22,18,84,52,24,0.00,40.00,0,-999,0,0.00
2014-4-14,48,48,48,23,23,23,37,37,37,0.00,40.00,0,-999,0,0.00
2014-4-15,44,38,35,26,24,23,67,59,44,0.00,40.00,0,-999,0,0.00
2014-4-17,41,38,35,37,34,32,90,86,84,0.00,40.00,0,-999,0,0.00
2014-4-18,41,35,28,30,28,25,87,77,62,0.00,40.00,0,-999,0,0.00
2014-4-19,45,34,28,33,28,24,92,80,45,0.00,40.00,0,-999,0,0.00
2014-4-20,32,30,28,29,27,25,90,89,87,0.00,40.00,0,-999,0,0.00
2014-4-21,55,45,36,36,31,23,92,60,28,0.00,40.00,0,-999,0,0.00
2014-4-22,37,32,28,34,28,23,92,85,73,0.00,40.00,0,-999,0,0.00
2014-4-23,32,31,31,29,29,28,91,89,87,0.00,40.00,0,-999,0,0.00
2014-4-24,37,35,32,33,32,29,92,87,82,0.00,40.00,0,-999,0,0.00
2014-4-26,40,37,33,30,25,20,89,64,46,0.00,40.00,0,-999,0,0.00
2014-4-27,35,31,29,31,28,26,94,88,76,0.00,40.00,0,-999,0,0.00
2014-4-28,48,35,28,35,28,24,92,77,55,0.00,40.00,0,-999,0,0.00
2014-4-29,56,44,35,32,28,25,87,57,31,0.00,40.00,0,-999,0,0.00
2014-4-30,65,45,34,30,27,25,74,51,24,0.00,40.00,0,-999,0,0.00
2014-5-1,56,45,38,34,29,27,67,54,33,0.00,40.00,0,-999,0,0.00
2014-5-2,63,52,41,40,32,27,78,49,26,0.00,40.00,0,-999,0,0.00
2014-5-3,46,40,36,39,33,30,89,78,66,0.00,40.00,0,-999,0,0.00
2014-5-4,43,38,35,36,34,32,92,85,75,0.00,40.00,0,-999,0,0.00
2014-5-5,41,37,34,35,33,32,94,86,75,0.00,40.00,0,-999,0,0.00
2014-5-6,42,38,35,35,33,32,92,82,72,0.00,40.00,0,-999,0,0.00
2014-5-14,75,59,53,36,36,35,53,44,23,0.00,40.00,0,-999,0,0.00
2014-5-15,73,60,48,40,35,31,74,43,21,0.00,40.00,0,-999,0,0.00
2014-5-16,58,45,42,40,38,36,86,77,43,0.00,40.00,0,-999,0,0.00
2014-5-17,49,44,42,38,36,34,84,75,55,0.00,40.00,0,-999,0,0.00
2014-5-18,44,40,37,37,35,33,87,83,77,0.00,40.00,0,-999,0,0.00
2014-5-20,62,58,52,42,38,36,54,48,42,0.00,40.00,0,-999,0,0.00
2014-5-21,49,46,39,41,39,37,91,78,75,0.00,40.00,0,-999,0,0.00
2014-5-22,72,60,42,46,41,35,80,52,33,0.00,40.00,0,-999,0,0.00
2014-5-23,54,49,45,47,43,37,89,81,72,0.00,40.00,0,-999,0,0.00
2014-5-24,54,46,40,43,39,37,93,75,56,0.00,40.00,0,-999,0,0.00
2014-5-25,53,45,38,41,37,32,89,76,50,0.00,40.00,0,-999,0,0.00
2014-5-26,45,42,40,40,38,35,89,86,80,0.00,40.00,0,-999,0,0.00
2014-5-27,50,42,34,36,33,30,91,71,47,0.00,40.00,0,-999,0,0.00
2014-5-28,44,38,37,36,34,32,92,86,65,0.00,40.00,0,-999,0,0.00
2014-5-29,50,39,36,35,34,33,89,81,56,0.00,40.00,0,-999,0,0.00
2014-5-30,70,60,46,47,38,33,81,47,25,0.00,40.00,0,-999,0,0.00
2014-5-31,63,55,38,41,39,35,89,57,37,0.00,40.00,0,-999,0,0.00
2014-6-1,65,52,39,44,40,36,92,67,40,0.00,40.00,0,-999,0,0.00
2014-6-2,67,53,40,45,40,36,87,66,38,0.00,40.00,0,-999,0,0.00
2014-6-3,60,51,45,44,43,40,93,76,55,0.00,40.00,0,-999,0,0.00
2014-6-4,65,51,38,41,36,31,92,62,30,0.00,40.00,0,-999,0,0.00
2014-6-5,61,44,38,38,37,31,94,80,32,0.00,40.00,0,-999,0,0.00
2014-6-6,65,50,36,36,23,9,85,43,13,0.00,40.00,0,-999,0,0.00
2014-6-7,64,53,40,43,39,31,76,59,45,0.00,40.00,0,-999,0,0.00
2014-6-8,66,54,40,43,40,37,90,64,39,0.00,40.00,0,-999,0,0.00
2014-6-9,59,53,47,42,40,39,75,62,51,0.00,40.00,0,-999,0,0.00
2014-6-10,56,48,43,40,38,36,85,70,51,0.00,40.00,0,-999,0,0.00
2014-6-11,70,50,37,46,37,33,88,65,29,0.00,40.00,0,-999,0,0.00
2014-6-12,53,47,39,45,40,35,89,79,58,0.00,40.00,0,-999,0,0.00
2014-6-13,43,40,38,39,37,35,92,89,85,0.00,40.00,0,-999,0,0.00
2014-6-14,44,40,36,39,36,34,93,87,77,0.00,40.00,0,-999,0,0.00
2014-6-15,48,41,35,40,36,32,92,84,65,0.00,40.00,0,-999,0,0.00
2014-6-16,44,39,33,35,34,31,92,81,69,0.00,40.00,0,-999,0,0.00
2014-6-17,43,40,36,41,37,34,95,91,84,0.00,40.00,0,-999,0,0.00
2014-6-18,56,44,39,44,40,38,96,87,63,0.00,40.00,0,-999,0,0.00
2014-6-19,66,52,40,46,39,32,90,63,39,0.00,40.00,0,-999,0,0.00
2014-6-20,53,47,43,45,39,33,91,75,50,0.00,40.00,0,-999,0,0.00
2014-6-21,66,55,37,43,37,32,83,54,31,0.00,40.00,0,-999,0,0.00
2014-6-22,70,54,42,46,40,37,88,64,31,0.00,40.00,0,-999,0,0.00
2014-6-23,69,54,46,42,40,36,79,63,32,0.00,40.00,0,-999,0,0.00
2014-6-24,62,56,48,45,45,43,84,66,53,0.00,40.00,0,-999,0,0.00
2014-6-25,65,51,42,44,42,38,88,74,47,0.00,40.00,0,-999,0,0.00
2014-6-27,51,48,44,47,44,41,90,89,85,0.00,40.00,0,-999,0,0.00
2014-6-28,44,44,44,42,42,42,91,91,91,0.00,40.00,0,-999,0,0.00
2014-6-29,50,49,49,43,42,42,77,77,77,0.00,40.00,0,-999,0,0.00
2014-7-3,57,53,50,45,44,43,78,72,63,0.00,40.00,0,-999,0,0.00
2014-7-4,67,57,47,43,42,40,85,61,37,0.00,40.00,0,-999,0,0.00
2014-7-5,67,61,49,48,47,42,78,62,48,0.00,40.00,0,-999,0,0.00
2014-7-6,59,56,54,49,48,47,80,74,70,0.00,40.00,0,-999,0,0.00
2014-7-7,73,64,52,51,48,44,87,59,37,0.00,40.00,0,-999,0,0.00
2014-7-9,75,69,58,53,50,44,81,53,34,0.00,40.00,0,-999,0,0.00
2014-7-10,53,52,51,50,50,49,93,91,89,0.00,40.00,0,0,0,0.00
2014-7-14,64,59,54,53,52,50,86,76,67,0.00,40.00,0,0,0,0.00
2014-7-26,47,47,47,42,42,42,84,84,84,0.00,40.00,0,0,0,0.00
2014-8-2,86,86,86,46,46,46,25,25,25,0.00,40.00,0,0,0,0.00
2014-8-4,62,62,62,47,47,47,58,58,58,0.00,40.00,0,0,0,0.00
2014-8-5,58,58,58,45,45,45,63,63,63,0.00,40.00,0,0,0,0.00
2014-8-8,68,61,50,49,48,45,83,63,48,0.00,40.00,0,0,0,0.00
2014-8-9,76,58,43,49,42,37,87,61,30,0.00,40.00,0,0,0,0.00
2014-8-10,54,52,50,46,43,40,76,72,69,0.00,40.00,0,0,0,0.00
2014-8-11,75,71,68,42,39,37,35,32,30,0.00,40.00,0,0,0,0.00
2014-8-12,79,65,54,57,50,41,93,61,35,0.00,40.00,0,0,0,0.00
2014-8-13,59,55,53,52,52,50,94,90,79,0.00,40.00,0,0,0,0.00
2014-8-19,70,63,56,52,51,49,79,65,48,0.00,40.00,0,0,0,0.00
2014-8-20,55,53,47,49,48,44,90,82,77,0.00,40.00,0,0,0,0.00
2014-8-24,66,55,45,50,44,40,90,71,43,0.00,40.00,0,0,0,0.00
2014-8-25,45,44,44,41,41,40,88,86,85,0.00,40.00,0,0,0,0.00
2014-9-6,50,50,50,34,34,34,54,54,54,0.00,40.00,0,0,0,0.00
2014-9-11,54,46,37,24,22,21,55,41,31,0.00,40.00,0,0,0,0.00
2014-9-15,77,77,77,36,36,36,23,23,23,0.00,40.00,0,0,0,0.00
2014-9-16,74,70,67,45,44,44,45,40,34,0.00,40.00,0,0,0,0.00
2014-9-24,49,49,49,46,46,46,91,91,91,0.00,40.00,0,0,0,0.00
2014-9-29,55,55,55,42,42,42,61,61,61,0.00,40.00,0,0,0,0.00
2014-10-1,42,42,42,38,38,38,87,87,87,0.00,40.00,0,0,0,0.00
2014-10-3,44,41,40,37,35,34,79,78,75,0.00,40.00,0,0,0,0.00
2014-10-4,46,46,46,37,37,37,72,72,72,0.00,40.00,0,0,0,0.00
2014-10-6,68,68,68,51,51,51,54,54,54,0.00,40.00,0,0,0,0.00
2014-10-21,39,39,39,37,37,37,91,91,91,0.00,40.00,0,0,0,0.00